| time (UTC) | temp C | wind direction | speed KPH | gust KPH | rain 1hr cm | rain 24hr cm | rain mn cm | humidity % | barometer mb |
| 20260505102053 | 16 | 180 | 3.2 | 6.4 | 0.00 | 0.20 | 0.00 | 61 | 1005.0 |
| 20260505101553 | 16 | 157 | 6.4 | 8.0 | 0.00 | 0.20 | 0.00 | 61 | 1005.0 |
| 20260505101053 | 16 | 157 | 4.8 | 9.7 | 0.00 | 0.20 | 0.00 | 60 | 1005.1 |
| 20260505100553 | 16 | 157 | 8.0 | 9.7 | 0.00 | 0.25 | 0.00 | 59 | 1004.9 |
| 20260505100053 | 16 | 180 | 4.8 | 9.7 | 0.00 | 0.25 | 0.00 | 60 | 1005.0 |
| 20260505095553 | 16 | 180 | 0.0 | 12.9 | 0.00 | 0.25 | 0.00 | 62 | 1005.0 |
| 20260505095053 | 16 | 180 | 9.7 | 9.7 | 0.00 | 0.25 | 0.00 | 62 | 1005.0 |
| 20260505094553 | 16 | 180 | 0.0 | 9.7 | 0.00 | 0.25 | 0.00 | 63 | 1005.0 |
| 20260505094053 | 16 | 180 | 4.8 | 11.3 | 0.00 | 0.25 | 0.00 | 63 | 1005.0 |
| 20260505093553 | 17 | 157 | 6.4 | 11.3 | 0.00 | 0.25 | 0.00 | 64 | 1005.0 |
| 20260505093053 | 16 | 180 | 3.2 | 14.5 | 0.00 | 0.25 | 0.00 | 66 | 1004.8 |
| 20260505092556 | 16 | 180 | 6.4 | 12.9 | 0.00 | 0.25 | 0.00 | 66 | 1004.9 |
| 20260505092053 | 15 | 180 | 4.8 | 11.3 | 0.00 | 0.25 | 0.00 | 66 | 1005.0 |
| 20260505091553 | 16 | 157 | 9.7 | 11.3 | 0.00 | 0.25 | 0.00 | 64 | 1005.0 |
| 20260505091053 | 16 | 180 | 1.6 | 11.3 | 0.00 | 0.25 | 0.00 | 63 | 1005.0 |
| 20260505090553 | 16 | 180 | 9.7 | 14.5 | 0.00 | 0.25 | 0.00 | 64 | 1005.0 |
| 20260505090053 | 16 | 180 | 9.7 | 9.7 | 0.00 | 0.25 | 0.00 | 66 | 1005.1 |
| 20260505085553 | 16 | 135 | 8.0 | 11.3 | 0.00 | 0.25 | 0.00 | 68 | 1005.1 |
| 20260505085053 | 16 | 180 | 0.0 | 8.0 | 0.00 | 0.25 | 0.00 | 69 | 1005.2 |
| 20260505084553 | 15 | 180 | 3.2 | 12.9 | 0.00 | 0.25 | 0.00 | 70 | 1005.3 |
| 20260505084053 | 15 | 180 | 3.2 | 11.3 | 0.00 | 0.25 | 0.00 | 71 | 1005.2 |
| 20260505083553 | 15 | 180 | 1.6 | 9.7 | 0.00 | 0.25 | 0.00 | 73 | 1005.3 |
| 20260505083053 | 15 | 180 | 4.8 | 8.0 | 0.00 | 0.25 | 0.00 | 72 | 1005.4 |
| 20260505082553 | 14 | 157 | 0.0 | 12.9 | 0.00 | 0.25 | 0.00 | 71 | 1005.4 |
| 20260505082053 | 14 | 180 | 6.4 | 9.7 | 0.00 | 0.25 | 0.00 | 72 | 1005.5 |
| 20260505081553 | 15 | 157 | 3.2 | 6.4 | 0.00 | 0.25 | 0.00 | 72 | 1005.4 |
| 20260505081053 | 15 | 157 | 0.0 | 9.7 | 0.00 | 0.25 | 0.00 | 72 | 1005.5 |
| 20260505080553 | 15 | 157 | 6.4 | 11.3 | 0.00 | 0.25 | 0.00 | 72 | 1005.4 |
| 20260505080053 | 14 | 157 | 6.4 | 9.7 | 0.00 | 0.25 | 0.00 | 71 | 1005.5 |
| 20260505075553 | 15 | 157 | 6.4 | 8.0 | 0.00 | 0.25 | 0.00 | 72 | 1005.5 |
| 20260505075053 | 15 | 157 | 6.4 | 8.0 | 0.00 | 0.25 | 0.00 | 76 | 1005.6 |
| 20260505074553 | 14 | 180 | 8.0 | 9.7 | 0.00 | 0.25 | 0.00 | 79 | 1005.6 |
| 20260505074053 | 13 | 135 | 6.4 | 8.0 | 0.00 | 0.25 | 0.00 | 79 | 1005.6 |
| 20260505073553 | 13 | 157 | 4.8 | 11.3 | 0.00 | 0.25 | 0.00 | 81 | 1005.6 |
| 20260505073053 | 13 | 135 | 6.4 | 8.0 | 0.00 | 0.25 | 0.00 | 83 | 1005.6 |
| 20260505072553 | 12 | 157 | 3.2 | 8.0 | 0.00 | 0.25 | 0.00 | 84 | 1005.6 |
| 20260505072053 | 12 | 180 | 6.4 | 8.0 | 0.00 | 0.25 | 0.00 | 85 | 1005.7 |
| 20260505071553 | 12 | 180 | 8.0 | 11.3 | 0.00 | 0.25 | 0.00 | 84 | 1005.7 |
| 20260505071053 | 12 | 135 | 3.2 | 8.0 | 0.00 | 0.25 | 0.00 | 85 | 1005.7 |
| 20260505070553 | 12 | 180 | 4.8 | 8.0 | 0.00 | 0.25 | 0.00 | 86 | 1005.8 |
| 20260505070053 | 12 | 180 | 6.4 | 6.4 | 0.00 | 0.25 | 0.00 | 86 | 1005.9 |
| 20260505065553 | 11 | 157 | 4.8 | 6.4 | 0.00 | 0.25 | 0.00 | 86 | 1005.8 |
| 20260505065053 | 11 | 157 | 1.6 | 3.2 | 0.00 | 0.25 | 0.00 | 86 | 1005.9 |
| 20260505064553 | 11 | 135 | 3.2 | 6.4 | 0.00 | 0.25 | 0.00 | 86 | 1005.8 |
| 20260505064053 | 11 | 135 | 3.2 | 6.4 | 0.00 | 0.25 | 0.00 | 86 | 1005.9 |
| 20260505063553 | 11 | 135 | 4.8 | 4.8 | 0.00 | 0.25 | 0.00 | 87 | 1005.8 |
| 20260505063053 | 11 | 135 | 3.2 | 4.8 | 0.00 | 0.25 | 0.00 | 87 | 1005.9 |
| 20260505062553 | 11 | 157 | 3.2 | 4.8 | 0.00 | 0.25 | 0.00 | 89 | 1005.8 |
| 20260505062053 | 11 | 135 | 3.2 | 6.4 | 0.00 | 0.25 | 0.00 | 89 | 1005.8 |
| 20260505061553 | 11 | 135 | 3.2 | 8.0 | 0.00 | 0.25 | 0.00 | 90 | 1006.0 |
| 20260505061053 | 12 | 135 | 6.4 | 8.0 | 0.00 | 0.25 | 0.00 | 93 | 1006.0 |
| 20260505060553 | 12 | 180 | 8.0 | 9.7 | 0.00 | 0.25 | 0.00 | 96 | 1006.0 |
| 20260505060053 | 11 | 180 | 6.4 | 8.0 | 0.00 | 0.25 | 0.00 | 96 | 1005.9 |
| 20260505055553 | 11 | 180 | 1.6 | 3.2 | 0.00 | 0.25 | 0.00 | 96 | 1006.0 |
| 20260505055053 | 11 | 180 | 0.0 | 3.2 | 0.00 | 0.25 | 0.00 | 96 | 1005.8 |
| 20260505054553 | 11 | 180 | 1.6 | 3.2 | 0.00 | 0.25 | 0.00 | 96 | 1005.8 |
| 20260505054053 | 11 | 180 | 1.6 | 1.6 | 0.00 | 0.25 | 0.00 | 96 | 1005.9 |
| 20260505053553 | 12 | 157 | 0.0 | 1.6 | 0.00 | 0.25 | 0.00 | 96 | 1005.8 |
| 20260505053053 | 12 | 157 | 1.6 | 1.6 | 0.00 | 0.25 | 0.00 | 96 | 1005.8 |
| 20260505052553 | 11 | 157 | 0.0 | 0.0 | 0.00 | 0.25 | 0.00 | 96 | 1005.7 |
| 20260505052053 | 11 | 157 | 0.0 | 0.0 | 0.00 | 0.25 | 0.00 | 96 | 1005.8 |
| 20260505051553 | 10 | 157 | 0.0 | 0.0 | 0.00 | 0.25 | 0.00 | 96 | 1005.8 |
| 20260505051053 | 10 | 157 | 0.0 | 0.0 | 0.00 | 0.25 | 0.00 | 96 | 1005.7 |
| 20260505050553 | 10 | 157 | 0.0 | 0.0 | 0.00 | 0.25 | 0.00 | 96 | 1005.7 |
| 20260505041554 | 10 | 157 | 0.0 | 0.0 | 0.00 | 0.25 | 0.00 | 96 | 1005.9 |
| 20260505041054 | 10 | 157 | 0.0 | 0.0 | 0.00 | 0.25 | 0.00 | 96 | 1005.9 |
| 20260505040553 | 10 | 157 | 0.0 | 0.0 | 0.00 | 0.25 | 0.00 | 96 | 1005.9 |
| 20260505040054 | 10 | 157 | 0.0 | 0.0 | 0.00 | 0.25 | 0.00 | 96 | 1006.0 |
| 20260505035554 | 10 | 157 | 0.0 | 0.0 | 0.00 | 0.25 | 0.00 | 96 | 1006.0 |
| 20260505035053 | 10 | 157 | 0.0 | 0.0 | 0.00 | 0.25 | 0.00 | 96 | 1006.0 |
| 20260505034554 | 10 | 157 | 0.0 | 0.0 | 0.00 | 0.25 | 0.00 | 96 | 1006.1 |
| 20260505034054 | 10 | 157 | 0.0 | 0.0 | 0.00 | 0.25 | 0.00 | 96 | 1006.2 |
| 20260505033554 | 10 | 157 | 0.0 | 0.0 | 0.00 | 0.25 | 0.00 | 96 | 1006.1 |
| 20260505033054 | 10 | 157 | 0.0 | 0.0 | 0.00 | 0.25 | 0.00 | 96 | 1006.2 |
| 20260505032554 | 10 | 157 | 0.0 | 0.0 | 0.00 | 0.25 | 0.00 | 96 | 1006.2 |
| 20260505032054 | 10 | 157 | 0.0 | 0.0 | 0.00 | 0.25 | 0.00 | 96 | 1006.3 |
| 20260505031554 | 10 | 157 | 0.0 | 0.0 | 0.00 | 0.25 | 0.00 | 96 | 1006.2 |
| 20260505031054 | 10 | 157 | 0.0 | 0.0 | 0.00 | 0.25 | 0.00 | 96 | 1006.3 |
| 20260505030554 | 10 | 180 | 0.0 | 0.0 | 0.00 | 0.25 | 0.00 | 96 | 1006.4 |
| 20260505030054 | 10 | 180 | 0.0 | 0.0 | 0.00 | 0.25 | 0.00 | 96 | 1006.5 |
| 20260505025554 | 10 | 180 | 0.0 | 0.0 | 0.00 | 0.25 | 0.00 | 96 | 1006.6 |
| 20260505025054 | 10 | 180 | 0.0 | 0.0 | 0.00 | 0.25 | 0.00 | 96 | 1006.6 |
| 20260505024554 | 10 | 180 | 0.0 | 0.0 | 0.00 | 0.25 | 0.00 | 96 | 1006.6 |
| 20260505024054 | 10 | 180 | 0.0 | 0.0 | 0.00 | 0.25 | 0.00 | 96 | 1006.4 |
| 20260505023554 | 10 | 180 | 0.0 | 0.0 | 0.00 | 0.25 | 0.00 | 96 | 1006.6 |
| 20260505023054 | 10 | 180 | 0.0 | 0.0 | 0.00 | 0.25 | 0.00 | 96 | 1006.5 |
| 20260505022554 | 10 | 180 | 0.0 | 0.0 | 0.00 | 0.25 | 0.00 | 96 | 1006.7 |
| 20260505022054 | 10 | 180 | 0.0 | 0.0 | 0.00 | 0.25 | 0.00 | 96 | 1006.7 |
| 20260505021554 | 10 | 180 | 0.0 | 0.0 | 0.00 | 0.25 | 0.00 | 96 | 1006.9 |
| 20260505021054 | 10 | 180 | 0.0 | 4.8 | 0.00 | 0.25 | 0.00 | 96 | 1006.9 |
| 20260505020554 | 10 | 180 | 0.0 | 0.0 | 0.00 | 0.25 | 0.00 | 96 | 1006.9 |
| 20260505020054 | 10 | 180 | 0.0 | 3.2 | 0.00 | 0.25 | 0.00 | 96 | 1006.9 |
| 20260505015554 | 10 | 180 | 3.2 | 4.8 | 0.00 | 0.25 | 0.00 | 94 | 1006.9 |
| 20260505015054 | 10 | 180 | 0.0 | 4.8 | 0.00 | 0.25 | 0.00 | 94 | 1007.0 |
| 20260505014554 | 10 | 180 | 3.2 | 8.0 | 0.00 | 0.25 | 0.00 | 94 | 1006.9 |
| 20260505014054 | 10 | 180 | 1.6 | 8.0 | 0.00 | 0.25 | 0.00 | 94 | 1006.9 |
| 20260505013554 | 10 | 180 | 0.0 | 3.2 | 0.00 | 0.25 | 0.00 | 94 | 1007.0 |
| 20260505013054 | 10 | 180 | 0.0 | 8.0 | 0.00 | 0.25 | 0.00 | 94 | 1007.0 |
| 20260505012554 | 10 | 180 | 6.4 | 6.4 | 0.00 | 0.25 | 0.00 | 94 | 1007.2 |
| 20260505012054 | 10 | 180 | 4.8 | 6.4 | 0.00 | 0.25 | 0.00 | 94 | 1007.2 |
| 20260505011554 | 9 | 180 | 3.2 | 4.8 | 0.00 | 0.25 | 0.00 | 94 | 1007.2 |
| 20260505011054 | 9 | 180 | 0.0 | 3.2 | 0.00 | 0.25 | 0.00 | 94 | 1007.4 |
| 20260505010554 | 10 | 180 | 1.6 | 9.7 | 0.00 | 0.25 | 0.00 | 94 | 1007.2 |
| 20260505010054 | 9 | 180 | 6.4 | 8.0 | 0.00 | 0.25 | 0.00 | 94 | 1007.2 |
| 20260505005554 | 9 | 180 | 4.8 | 6.4 | 0.00 | 0.25 | 0.00 | 93 | 1007.3 |
| 20260505005054 | 9 | 157 | 4.8 | 4.8 | 0.00 | 0.25 | 0.00 | 93 | 1007.3 |
| 20260505004554 | 9 | 180 | 3.2 | 4.8 | 0.00 | 0.25 | 0.00 | 93 | 1007.3 |
| 20260505004054 | 9 | 180 | 0.0 | 3.2 | 0.00 | 0.25 | 0.00 | 93 | 1007.2 |
| 20260505003554 | 9 | 180 | 0.0 | 1.6 | 0.00 | 0.25 | 0.00 | 93 | 1007.3 |
| 20260505003054 | 9 | 180 | 0.0 | 3.2 | 0.00 | 0.25 | 0.00 | 93 | 1007.3 |
| 20260505002554 | 9 | 180 | 3.2 | 6.4 | 0.00 | 0.25 | 0.00 | 93 | 1007.4 |
| 20260505002054 | 9 | 180 | 0.0 | 0.0 | 0.00 | 0.25 | 0.00 | 93 | 1007.4 |
| 20260505001555 | 10 | 180 | 0.0 | 6.4 | 0.00 | 0.25 | 0.00 | 93 | 1007.6 |
| 20260505001054 | 10 | 180 | 3.2 | 6.4 | 0.00 | 0.25 | 0.00 | 93 | 1007.5 |
| 20260505000554 | 10 | 180 | 4.8 | 4.8 | 0.00 | 0.25 | 0.00 | 93 | 1007.5 |
| 20260505000054 | 10 | 180 | 3.2 | 4.8 | 0.00 | 0.25 | 0.00 | 93 | 1007.7 |
| 20260504235554 | 10 | 157 | 3.2 | 4.8 | 0.00 | 0.25 | 0.00 | 92 | 1007.6 |
| 20260504235054 | 10 | 157 | 0.0 | 4.8 | 0.00 | 0.25 | 0.00 | 92 | 1007.6 |
| 20260504234554 | 10 | 135 | 3.2 | 6.4 | 0.00 | 0.25 | 0.00 | 92 | 1007.6 |
| 20260504234054 | 10 | 157 | 1.6 | 3.2 | 0.00 | 0.25 | 0.00 | 93 | 1007.6 |
| 20260504233554 | 10 | 202 | 0.0 | 0.0 | 0.00 | 0.25 | 0.00 | 93 | 1007.7 |
| 20260504233054 | 10 | 202 | 0.0 | 0.0 | 0.00 | 0.25 | 0.00 | 93 | 1007.7 |
| 20260504232554 | 10 | 202 | 0.0 | 0.0 | 0.00 | 0.25 | 0.00 | 93 | 1007.8 |
| 20260504232054 | 10 | 202 | 0.0 | 0.0 | 0.00 | 0.25 | 0.00 | 93 | 1007.8 |
| 20260504231554 | 10 | 202 | 0.0 | 0.0 | 0.00 | 0.25 | 0.00 | 93 | 1007.9 |
| 20260504231054 | 10 | 202 | 0.0 | 0.0 | 0.00 | 0.25 | 0.00 | 93 | 1007.8 |
| 20260504230554 | 10 | 202 | 0.0 | 0.0 | 0.00 | 0.25 | 0.00 | 92 | 1007.9 |
| 20260504230054 | 10 | 202 | 0.0 | 0.0 | 0.00 | 0.25 | 0.00 | 92 | 1007.9 |
| 20260504225554 | 10 | 202 | 0.0 | 0.0 | 0.00 | 0.25 | 0.00 | 92 | 1008.0 |
| 20260504225054 | 10 | 202 | 0.0 | 0.0 | 0.00 | 0.25 | 0.00 | 92 | 1008.0 |
| 20260504224554 | 10 | 202 | 0.0 | 0.0 | 0.00 | 0.25 | 0.00 | 92 | 1008.0 |
| 20260504224054 | 10 | 202 | 0.0 | 0.0 | 0.00 | 0.25 | 0.00 | 92 | 1008.0 |
| 20260504223554 | 10 | 202 | 0.0 | 0.0 | 0.00 | 0.25 | 0.00 | 91 | 1008.1 |
| 20260504223054 | 10 | 202 | 0.0 | 0.0 | 0.00 | 0.25 | 0.00 | 91 | 1008.3 |
| 20260504222554 | 10 | 202 | 0.0 | 0.0 | 0.00 | 0.25 | 0.00 | 91 | 1008.3 |
| 20260504222054 | 10 | 202 | 0.0 | 0.0 | 0.00 | 0.25 | 0.00 | 91 | 1008.3 |
| 20260504221554 | 10 | 202 | 0.0 | 0.0 | 0.00 | 0.25 | 0.00 | 91 | 1008.5 |
| 20260504221054 | 10 | 202 | 0.0 | 0.0 | 0.00 | 0.25 | 0.00 | 91 | 1008.5 |
| 20260504220554 | 10 | 202 | 0.0 | 0.0 | 0.00 | 0.25 | 0.00 | 91 | 1008.5 |
| 20260504220054 | 10 | 202 | 0.0 | 0.0 | 0.00 | 0.25 | 0.00 | 91 | 1008.5 |
| 20260504215554 | 10 | 202 | 0.0 | 0.0 | 0.00 | 0.25 | 0.00 | 91 | 1008.5 |
| 20260504215054 | 10 | 202 | 0.0 | 0.0 | 0.00 | 0.25 | 0.00 | 91 | 1008.6 |
| 20260504214554 | 10 | 202 | 0.0 | 0.0 | 0.00 | 0.25 | 0.00 | 91 | 1008.7 |
| 20260504214054 | 10 | 202 | 0.0 | 0.0 | 0.00 | 0.25 | 0.00 | 91 | 1008.7 |
| 20260504213554 | 10 | 202 | 0.0 | 0.0 | 0.00 | 0.25 | 0.00 | 91 | 1008.8 |
| 20260504213054 | 10 | 202 | 0.0 | 0.0 | 0.00 | 0.25 | 0.00 | 91 | 1008.7 |
| 20260504212554 | 10 | 202 | 0.0 | 0.0 | 0.00 | 0.25 | 0.00 | 91 | 1008.8 |
| 20260504212123 | 10 | 202 | 0.0 | 6.4 | 0.00 | 0.25 | 0.00 | 91 | 1008.8 |
| 20260504211554 | 10 | 180 | 1.6 | 8.0 | 0.00 | 0.25 | 0.00 | 91 | 1008.8 |
| 20260504211054 | 10 | 180 | 0.0 | 9.7 | 0.00 | 0.25 | 0.00 | 91 | 1008.9 |
| 20260504210554 | 10 | 180 | 6.4 | 6.4 | 0.00 | 0.25 | 0.00 | 91 | 1009.0 |
| 20260504210054 | 10 | 180 | 4.8 | 6.4 | 0.00 | 0.25 | 0.00 | 91 | 1009.0 |
| 20260504205554 | 10 | 157 | 3.2 | 3.2 | 0.00 | 0.25 | 0.00 | 91 | 1009.0 |
| 20260504205054 | 10 | 180 | 0.0 | 6.4 | 0.00 | 0.25 | 0.00 | 91 | 1009.1 |
| 20260504204554 | 10 | 157 | 0.0 | 6.4 | 0.00 | 0.25 | 0.00 | 91 | 1009.1 |
| 20260504204054 | 10 | 157 | 1.6 | 8.0 | 0.00 | 0.25 | 0.00 | 91 | 1009.0 |
| 20260504203556 | 10 | 180 | 4.8 | 9.7 | 0.00 | 0.25 | 0.00 | 91 | 1008.9 |
| 20260504203055 | 10 | 135 | 1.6 | 6.4 | 0.00 | 0.25 | 0.00 | 91 | 1009.1 |
| 20260504202554 | 10 | 157 | 3.2 | 6.4 | 0.00 | 0.25 | 0.00 | 91 | 1009.0 |
| 20260504201555 | 10 | 180 | 6.4 | 9.7 | 0.00 | 0.25 | 0.00 | 91 | 1009.0 |
| 20260504201055 | 10 | 157 | 6.4 | 9.7 | 0.00 | 0.25 | 0.00 | 92 | 1009.1 |
| 20260504200555 | 10 | 157 | 6.4 | 8.0 | 0.00 | 0.25 | 0.00 | 92 | 1009.0 |
| 20260504200055 | 10 | 157 | 4.8 | 6.4 | 0.00 | 0.25 | 0.00 | 92 | 1008.9 |
| 20260504195555 | 10 | 180 | 6.4 | 8.0 | 0.00 | 0.25 | 0.00 | 92 | 1009.0 |
| 20260504195055 | 10 | 180 | 8.0 | 11.3 | 0.00 | 0.25 | 0.00 | 92 | 1008.8 |
| 20260504194555 | 10 | 157 | 4.8 | 11.3 | 0.00 | 0.25 | 0.00 | 92 | 1009.0 |
| 20260504194055 | 10 | 157 | 3.2 | 6.4 | 0.00 | 0.25 | 0.00 | 92 | 1009.1 |
| 20260504193555 | 10 | 157 | 1.6 | 4.8 | 0.00 | 0.25 | 0.00 | 92 | 1009.0 |
| 20260504193055 | 10 | 135 | 3.2 | 3.2 | 0.00 | 0.25 | 0.00 | 92 | 1009.0 |
| 20260504192555 | 10 | 157 | 1.6 | 3.2 | 0.00 | 0.25 | 0.00 | 92 | 1008.9 |
| 20260504192055 | 10 | 157 | 3.2 | 3.2 | 0.00 | 0.25 | 0.00 | 92 | 1008.8 |
| 20260504191555 | 10 | 157 | 3.2 | 6.4 | 0.00 | 0.25 | 0.00 | 92 | 1008.9 |
| 20260504191055 | 10 | 157 | 3.2 | 3.2 | 0.00 | 0.25 | 0.00 | 92 | 1008.9 |
| 20260504190555 | 10 | 157 | 0.0 | 1.6 | 0.00 | 0.25 | 0.00 | 91 | 1008.9 |
| 20260504190055 | 10 | 225 | 0.0 | 0.0 | 0.00 | 0.25 | 0.00 | 91 | 1008.9 |
| 20260504185555 | 10 | 225 | 0.0 | 0.0 | 0.00 | 0.25 | 0.00 | 91 | 1008.9 |
| 20260504185055 | 10 | 225 | 0.0 | 0.0 | 0.00 | 0.25 | 0.00 | 91 | 1008.8 |
| 20260504184555 | 10 | 270 | 0.0 | 0.0 | 0.00 | 0.25 | 0.00 | 91 | 1008.8 |
| 20260504184055 | 10 | 270 | 0.0 | 0.0 | 0.05 | 0.25 | 0.00 | 91 | 1008.7 |
| 20260504183555 | 10 | 270 | 0.0 | 0.0 | 0.05 | 0.25 | 0.00 | 91 | 1008.8 |
| 20260504183055 | 10 | 270 | 0.0 | 0.0 | 0.05 | 0.25 | 0.00 | 91 | 1008.8 |
| 20260504182555 | 10 | 270 | 0.0 | 0.0 | 0.05 | 0.25 | 0.00 | 91 | 1008.9 |
| 20260504182055 | 10 | 270 | 0.0 | 0.0 | 0.05 | 0.25 | 0.00 | 91 | 1009.0 |
| 20260504181555 | 10 | 225 | 0.0 | 0.0 | 0.05 | 0.25 | 0.00 | 91 | 1009.0 |
| 20260504181055 | 10 | 225 | 0.0 | 0.0 | 0.05 | 0.25 | 0.00 | 91 | 1009.1 |
| 20260504180555 | 10 | 225 | 0.0 | 0.0 | 0.05 | 0.25 | 0.00 | 91 | 1009.1 |
| 20260504180055 | 10 | 225 | 0.0 | 0.0 | 0.05 | 0.25 | 0.00 | 91 | 1008.8 |
| 20260504175555 | 10 | 225 | 0.0 | 0.0 | 0.05 | 0.25 | 0.00 | 91 | 1008.9 |
| 20260504175055 | 10 | 225 | 0.0 | 0.0 | 0.05 | 0.25 | 0.00 | 91 | 1009.0 |
| 20260504174555 | 10 | 247 | 0.0 | 0.0 | 0.00 | 0.20 | 0.00 | 91 | 1009.0 |
| 20260504174055 | 10 | 225 | 0.0 | 4.8 | 0.00 | 0.20 | 0.00 | 91 | 1009.1 |
| 20260504173555 | 11 | 135 | 3.2 | 6.4 | 0.00 | 0.20 | 0.00 | 91 | 1009.1 |
| 20260504173055 | 11 | 135 | 6.4 | 8.0 | 0.00 | 0.20 | 0.00 | 90 | 1009.1 |
| 20260504172555 | 11 | 135 | 3.2 | 8.0 | 0.00 | 0.20 | 0.00 | 90 | 1009.1 |
| 20260504172055 | 11 | 180 | 6.4 | 8.0 | 0.00 | 0.20 | 0.00 | 90 | 1009.2 |
| 20260504171555 | 11 | 157 | 6.4 | 9.7 | 0.00 | 0.20 | 0.00 | 90 | 1009.2 |
| 20260504171055 | 11 | 180 | 9.7 | 9.7 | 0.00 | 0.20 | 0.00 | 89 | 1009.2 |
| 20260504170555 | 11 | 157 | 8.0 | 9.7 | 0.00 | 0.20 | 0.00 | 89 | 1009.2 |
| 20260504151055 | 11 | 180 | 4.8 | 4.8 | 0.05 | 0.20 | 0.00 | 84 | 1009.7 |
| 20260504150555 | 11 | 67 | 0.0 | 0.0 | 0.05 | 0.25 | 0.00 | 84 | 1009.6 |
| 20260504141055 | 12 | 22 | 0.0 | 3.2 | 0.00 | 0.20 | 0.00 | 78 | 1009.8 |
| 20260504140555 | 12 | 22 | 3.2 | 3.2 | 0.00 | 0.20 | 0.00 | 78 | 1009.8 |
| 20260504130555 | 13 | 180 | 3.2 | 6.4 | 0.05 | 0.25 | 0.00 | 79 | 1010.4 |
| 20260504110556 | 12 | 202 | 0.0 | 0.0 | 0.05 | 0.15 | 0.00 | 80 | 1010.9 |